timestamp,wind_dir_avg,wind_spd_avg,wind_spd_max_dir,wind_spd_gust,battery_voltage,lat,long
2022-05-19 00:04:01+00:00,222.0,6.53,217.0,7.68,12.97,47.59359,-54.27349
2022-05-19 00:14:01+00:00,214.0,6.77,215.0,8.03,12.49,47.59359,-54.27349
2022-05-19 00:24:01+00:00,222.0,7.28,228.0,8.54,12.49,47.59359,-54.27349
2022-05-19 00:34:01+00:00,223.0,6.88,229.0,8.32,12.49,47.59359,-54.27349
2022-05-19 00:44:01+00:00,219.0,6.39,228.0,7.82,12.49,47.59359,-54.27349
2022-05-19 00:54:01+00:00,219.0,6.48,232.0,8.31,12.49,47.59359,-54.27349
2022-05-19 01:04:01+00:00,227.0,7.97,225.0,8.74,12.49,47.59359,-54.27349
2022-05-19 01:14:01+00:00,229.0,7.28,232.0,8.26,12.41,47.59359,-54.27349
2022-05-19 01:24:01+00:00,215.0,7.11,226.0,8.58,12.41,47.59359,-54.27349
2022-05-19 01:34:01+00:00,208.0,7.47,216.0,8.45,12.41,47.59359,-54.27349
2022-05-19 01:44:01+00:00,208.0,8.45,221.0,9.14,12.41,47.59359,-54.27349
2022-05-19 01:54:01+00:00,220.0,6.98,224.0,8.6,12.41,47.59359,-54.27349
2022-05-19 02:04:01+00:00,213.0,7.17,216.0,7.73,12.41,47.59359,-54.27349
2022-05-19 02:14:01+00:00,215.0,6.68,225.0,8.28,12.41,47.59359,-54.27349
2022-05-19 02:24:01+00:00,215.0,6.99,228.0,8.51,12.41,47.59359,-54.27349
2022-05-19 02:34:01+00:00,223.0,6.02,237.0,7.67,12.41,47.59359,-54.27349
2022-05-19 02:44:01+00:00,217.0,6.66,230.0,8.41,12.41,47.59359,-54.27349
2022-05-19 02:54:01+00:00,223.0,6.18,233.0,8.05,12.41,47.59359,-54.27349
2022-05-19 03:04:01+00:00,230.0,7.68,231.0,8.39,12.41,47.59359,-54.27349
2022-05-19 03:14:00+00:00,233.0,7.56,230.0,8.27,12.41,47.59359,-54.27349
2022-05-19 03:24:00+00:00,225.0,7.08,229.0,8.45,12.41,47.59359,-54.27349
2022-05-19 03:34:00+00:00,218.0,6.61,227.0,8.04,12.41,47.59359,-54.27349
2022-05-19 03:44:00+00:00,214.0,7.31,216.0,8.0,12.41,47.59359,-54.27349
2022-05-19 03:54:00+00:00,210.0,7.79,206.0,8.52,12.41,47.59359,-54.27349
2022-05-19 04:04:00+00:00,213.0,7.46,212.0,8.06,12.41,47.59359,-54.27349
2022-05-19 04:14:00+00:00,214.0,6.93,212.0,8.1,12.33,47.59359,-54.27349
2022-05-19 04:24:00+00:00,212.0,7.43,228.0,8.42,12.33,47.59359,-54.27349
2022-05-19 04:34:00+00:00,213.0,7.74,220.0,8.86,12.33,47.59359,-54.27349
2022-05-19 04:44:00+00:00,216.0,6.94,226.0,8.32,12.33,47.59359,-54.27349
2022-05-19 04:54:00+00:00,212.0,7.27,215.0,8.12,12.33,47.59359,-54.27349
2022-05-19 05:04:00+00:00,212.0,7.98,212.0,8.48,12.33,47.59359,-54.27349
2022-05-19 05:14:01+00:00,211.0,7.76,224.0,8.85,12.41,47.59359,-54.27349
2022-05-19 05:24:01+00:00,224.0,6.92,233.0,8.39,12.41,47.59359,-54.27349
2022-05-19 05:34:01+00:00,232.0,7.4,233.0,8.18,12.41,47.59359,-54.27349
2022-05-19 05:44:01+00:00,242.0,4.81,258.0,6.46,12.41,47.59359,-54.27349
2022-05-19 05:54:01+00:00,213.0,4.11,224.0,4.99,12.41,47.59359,-54.27349
2022-05-19 06:04:01+00:00,240.0,5.29,250.0,8.06,12.41,47.59359,-54.27349
2022-05-19 06:14:00+00:00,235.0,4.71,250.0,8.07,12.33,47.59359,-54.27349
2022-05-19 06:24:00+00:00,211.0,2.86,214.0,3.76,12.33,47.59359,-54.27349
2022-05-19 06:34:00+00:00,237.0,4.37,240.0,5.81,12.33,47.59359,-54.27349
2022-05-19 06:44:00+00:00,221.0,6.36,221.0,7.14,12.33,47.59359,-54.27349
2022-05-19 06:54:00+00:00,218.0,6.25,227.0,7.16,12.33,47.59359,-54.27349
2022-05-19 07:04:00+00:00,222.0,6.28,215.0,6.98,12.33,47.59359,-54.27349
2022-05-19 07:14:01+00:00,223.0,6.26,221.0,7.09,12.25,47.59359,-54.27349
2022-05-19 07:24:01+00:00,218.0,5.45,230.0,7.75,12.25,47.59359,-54.27349
2022-05-19 07:34:01+00:00,221.0,5.67,237.0,7.82,12.25,47.59359,-54.27349
2022-05-19 07:44:01+00:00,238.0,6.98,240.0,8.66,12.25,47.59359,-54.27349
2022-05-19 07:54:01+00:00,233.0,5.65,234.0,6.12,12.25,47.59359,-54.27349
2022-05-19 08:04:01+00:00,235.0,5.62,239.0,6.12,12.25,47.59359,-54.27349
2022-05-19 08:14:00+00:00,236.0,5.59,236.0,6.39,12.25,47.59359,-54.27349
2022-05-19 08:24:00+00:00,249.0,5.33,248.0,5.78,12.25,47.59359,-54.27349
2022-05-19 08:34:00+00:00,266.0,5.64,271.0,7.5,12.25,47.59359,-54.27349
2022-05-19 08:44:00+00:00,281.0,6.63,283.0,7.22,12.25,47.59359,-54.27349
2022-05-19 08:54:00+00:00,270.0,4.85,271.0,6.7,12.25,47.59359,-54.27349
2022-05-19 09:04:00+00:00,253.0,5.34,256.0,7.1,12.25,47.59359,-54.27349
2022-05-19 09:14:01+00:00,243.0,4.47,241.0,5.44,12.33,47.59359,-54.27349
2022-05-19 09:24:01+00:00,249.0,5.15,248.0,5.7,12.33,47.59359,-54.27349
2022-05-19 09:34:01+00:00,235.0,5.15,235.0,6.19,12.33,47.59359,-54.27349
2022-05-19 09:44:01+00:00,235.0,5.05,235.0,6.17,12.33,47.59359,-54.27349
2022-05-19 09:54:01+00:00,241.0,4.96,246.0,7.37,12.33,47.59359,-54.27349
2022-05-19 10:04:01+00:00,256.0,5.19,248.0,7.25,12.33,47.59359,-54.27349
2022-05-19 10:14:01+00:00,246.0,5.2,243.0,6.17,12.65,47.59359,-54.27349
2022-05-19 10:24:01+00:00,254.0,5.22,255.0,6.06,12.65,47.59359,-54.27349
2022-05-19 10:34:01+00:00,262.0,6.07,268.0,7.16,12.65,47.59359,-54.27349
2022-05-19 10:44:01+00:00,252.0,7.96,251.0,8.7,12.65,47.59359,-54.27349
2022-05-19 10:54:01+00:00,267.0,9.76,271.0,13.17,12.65,47.59359,-54.27349
2022-05-19 11:04:01+00:00,266.0,5.35,267.0,6.99,12.65,47.59359,-54.27349
2022-05-19 11:14:01+00:00,242.0,5.45,248.0,7.51,13.29,47.59359,-54.27349
2022-05-19 11:24:01+00:00,236.0,6.27,238.0,8.14,13.29,47.59359,-54.27349
2022-05-19 11:34:01+00:00,261.0,7.73,262.0,9.43,13.29,47.59359,-54.27349
2022-05-19 11:44:01+00:00,264.0,7.69,268.0,11.91,13.29,47.59359,-54.27349
2022-05-19 11:54:01+00:00,268.0,7.23,265.0,7.92,13.29,47.59359,-54.27349
2022-05-19 12:04:01+00:00,250.0,6.79,251.0,8.45,13.29,47.59359,-54.27349
2022-05-19 12:14:01+00:00,249.0,7.46,248.0,8.17,13.53,47.59359,-54.27349
2022-05-19 12:24:01+00:00,253.0,8.78,259.0,12.85,13.53,47.59359,-54.27349
2022-05-19 12:34:01+00:00,261.0,6.8,263.0,7.56,13.53,47.59359,-54.27349
2022-05-19 12:44:01+00:00,252.0,6.33,253.0,7.4,13.53,47.59359,-54.27349
2022-05-19 12:54:01+00:00,246.0,5.91,254.0,7.48,13.53,47.59359,-54.27349
2022-05-19 13:04:01+00:00,275.0,6.72,285.0,7.73,13.53,47.59359,-54.27349
2022-05-19 13:14:00+00:00,258.0,6.86,256.0,7.69,13.68,47.59359,-54.27349
2022-05-19 13:24:00+00:00,273.0,7.46,270.0,12.46,13.68,47.59359,-54.27349
2022-05-19 13:34:00+00:00,275.0,7.36,278.0,8.11,13.68,47.59359,-54.27349
2022-05-19 13:44:00+00:00,268.0,6.57,260.0,7.8,13.68,47.59359,-54.27349
2022-05-19 13:54:00+00:00,266.0,4.88,271.0,5.42,13.68,47.59359,-54.27349
2022-05-19 14:04:00+00:00,250.0,5.17,259.0,5.88,13.68,47.59359,-54.27349
2022-05-19 14:14:01+00:00,256.0,5.66,253.0,6.71,13.68,47.59359,-54.27349
2022-05-19 14:24:01+00:00,251.0,7.52,264.0,10.95,13.68,47.59359,-54.27349
2022-05-19 14:34:01+00:00,262.0,7.03,260.0,7.68,13.68,47.59359,-54.27349
2022-05-19 14:44:01+00:00,251.0,6.71,249.0,7.53,13.68,47.59359,-54.27349
2022-05-19 14:54:01+00:00,262.0,5.49,263.0,6.83,13.68,47.59359,-54.27349
2022-05-19 15:04:01+00:00,259.0,5.69,264.0,6.43,13.68,47.59359,-54.27349
2022-05-19 15:14:00+00:00,260.0,6.55,259.0,7.22,14.4,47.59359,-54.27349
2022-05-19 15:24:00+00:00,258.0,4.48,260.0,4.81,14.4,47.59359,-54.27349
2022-05-19 15:34:00+00:00,272.0,6.93,273.0,8.13,14.4,47.59359,-54.27349
2022-05-19 15:44:00+00:00,270.0,13.61,266.0,14.74,14.4,47.59359,-54.27349
2022-05-19 15:54:00+00:00,267.0,10.02,269.0,13.07,14.4,47.59359,-54.27349
2022-05-19 16:04:00+00:00,277.0,5.98,283.0,6.55,14.4,47.59359,-54.27349
2022-05-19 16:14:00+00:00,279.0,6.48,277.0,7.16,13.68,47.59359,-54.27349
2022-05-19 16:24:00+00:00,273.0,9.89,272.0,13.54,13.68,47.59359,-54.27349
2022-05-19 16:34:00+00:00,278.0,7.24,279.0,8.06,13.68,47.59359,-54.27349
2022-05-19 16:44:00+00:00,276.0,7.14,277.0,8.24,13.68,47.59359,-54.27349
2022-05-19 16:54:00+00:00,285.0,8.45,287.0,9.29,13.68,47.59359,-54.27349
2022-05-19 17:04:00+00:00,268.0,7.54,264.0,8.31,13.68,47.59359,-54.27349
2022-05-19 17:14:00+00:00,263.0,8.92,265.0,10.07,13.68,47.59359,-54.27349
2022-05-19 17:24:00+00:00,264.0,7.89,265.0,9.08,13.68,47.59359,-54.27349
2022-05-19 17:34:00+00:00,252.0,6.43,253.0,7.97,13.68,47.59359,-54.27349
2022-05-19 17:44:00+00:00,239.0,7.14,241.0,7.93,13.68,47.59359,-54.27349
2022-05-19 17:54:00+00:00,273.0,5.73,268.0,8.21,13.68,47.59359,-54.27349
2022-05-19 18:04:00+00:00,275.0,7.44,281.0,8.77,13.68,47.59359,-54.27349
2022-05-19 18:14:00+00:00,282.0,6.18,291.0,7.02,13.84,47.59359,-54.27349
2022-05-19 18:24:00+00:00,258.0,6.83,266.0,7.97,13.84,47.59359,-54.27349
2022-05-19 18:34:00+00:00,234.0,5.59,229.0,6.19,13.84,47.59359,-54.27349
2022-05-19 18:44:00+00:00,250.0,7.38,250.0,9.03,13.84,47.59359,-54.27349
2022-05-19 18:54:00+00:00,247.0,7.79,243.0,9.0,13.84,47.59359,-54.27349
2022-05-19 19:04:00+00:00,240.0,8.39,244.0,9.19,13.84,47.59359,-54.27349
2022-05-19 19:14:01+00:00,228.0,8.5,226.0,10.49,13.76,47.59359,-54.27349
2022-05-19 19:24:01+00:00,227.0,7.17,228.0,8.31,13.76,47.59359,-54.27349
2022-05-19 19:34:01+00:00,234.0,7.37,237.0,8.36,13.76,47.59359,-54.27349
2022-05-19 19:44:01+00:00,233.0,8.12,230.0,9.19,13.76,47.59359,-54.27349
2022-05-19 19:54:01+00:00,228.0,7.6,228.0,9.02,13.76,47.59359,-54.27349
2022-05-19 20:04:01+00:00,232.0,9.58,246.0,12.31,13.76,47.59359,-54.27349
2022-05-19 20:14:00+00:00,233.0,8.04,237.0,9.02,13.68,47.59359,-54.27349
2022-05-19 20:24:00+00:00,241.0,8.13,240.0,9.19,13.68,47.59359,-54.27349
2022-05-19 20:34:00+00:00,240.0,7.99,242.0,9.15,13.68,47.59359,-54.27349
2022-05-19 20:44:00+00:00,250.0,9.3,250.0,12.11,13.68,47.59359,-54.27349
2022-05-19 20:54:00+00:00,241.0,9.27,239.0,11.3,13.68,47.59359,-54.27349
2022-05-19 21:04:00+00:00,239.0,9.68,239.0,11.58,13.68,47.59359,-54.27349
2022-05-19 21:14:00+00:00,243.0,8.86,244.0,10.29,13.6,47.59359,-54.27349
2022-05-19 21:24:00+00:00,243.0,9.17,250.0,10.36,13.6,47.59359,-54.27349
2022-05-19 21:34:00+00:00,252.0,8.36,254.0,9.26,13.6,47.59359,-54.27349
2022-05-19 21:44:00+00:00,250.0,8.83,250.0,9.71,13.6,47.59359,-54.27349
2022-05-19 21:54:00+00:00,254.0,8.29,262.0,9.31,13.6,47.59359,-54.27349
2022-05-19 22:04:00+00:00,246.0,7.68,245.0,9.14,13.6,47.59359,-54.27349
2022-05-19 22:14:01+00:00,259.0,5.62,259.0,6.02,13.44,47.59359,-54.27349
2022-05-19 22:24:01+00:00,285.0,7.94,282.0,8.89,13.44,47.59359,-54.27349
2022-05-19 22:34:01+00:00,287.0,8.7,295.0,10.54,13.44,47.59359,-54.27349
2022-05-19 22:44:01+00:00,283.0,10.28,285.0,11.37,13.44,47.59359,-54.27349
2022-05-19 22:54:01+00:00,287.0,9.32,288.0,11.25,13.44,47.59359,-54.27349
2022-05-19 23:04:01+00:00,286.0,8.67,287.0,10.15,13.44,47.59359,-54.27349
2022-05-19 23:14:01+00:00,281.0,8.75,278.0,9.85,12.97,47.59359,-54.27349
2022-05-19 23:24:01+00:00,284.0,7.88,285.0,8.59,12.97,47.59359,-54.27349
2022-05-19 23:34:01+00:00,276.0,7.17,278.0,8.76,12.97,47.59359,-54.27349
2022-05-19 23:44:01+00:00,286.0,7.87,286.0,9.59,12.97,47.59359,-54.27349
2022-05-19 23:54:01+00:00,283.0,8.67,284.0,11.61,12.97,47.59359,-54.27349
